Back to catalog

SCATHA

AliveScienceMEO
NORAD 11256·PAYLOAD·🇺🇸 United States

Launched Jan 30, 1979 from Cape Canaveral Space Force Station

Loading…

Next Passes (next 24 hours)

TLE

FreshSource: Space-Track

Epoch: Sep 14, 2026, 09:01 UTC

1 11256U 79007A   26257.37584009 -.00000059  00000-0  00000-0 0  9991
2 11256   9.4479 275.1832 1793970 143.0406 230.9006  1.01525903143365

Track SCATHA in real time with AllMySat

Download on the App Store